Regional Weather Roundup
Issued by NWS

Home | Current Version | Previous Version | Text Only | Print | Product List | Glossary On
Versions: 1 2 3 4 5 6 7 8 9 10 11 12 13 14 15 16 17 18 19 20 21 22 23 24 25 26 27
000
ASUS46 KPQR 152110
RWROR

OREGON REGIONAL WEATHER ROUNDUP
NATIONAL WEATHER SERVICE PORTLAND OR
100 PM PST FRI DEC 15 2017

NOTE: "FAIR" INDICATES FEW OR NO CLOUDS BELOW 12,000 FEET WITH
NO SIGNIFICANT WEATHER AND/OR OBSTRUCTIONS TO VISIBILITY.

ORZ001>013-152200-
NORTHWEST OREGON


CITY           SKY/WX    TMP DP  RH WIND       PRES   REMARKS
ASTORIA        PTSUNNY   46  44  93 CALM      30.23S
NEWPORT        CLOUDY    46  46 100 N3        30.30F FOG
PORTLAND       CLOUDY    39  30  70 CALM      30.28S
VANCOUVER WA   CLOUDY    40  31  70 VRB3      30.27F
SCAPPOOSE      CLOUDY    37  33  85 CALM      30.26F
HILLSBORO      CLOUDY    37  31  78 CALM      30.26F
AURORA         CLOUDY    36  31  82 CALM      30.29S
MCMINNVILLE    CLOUDY    37  32  82 VRB3      30.28F
SALEM          CLOUDY    39  34  82 N3        30.27S
CORVALLIS      CLOUDY    37  34  89 CALM      30.28F
EUGENE         CLOUDY    37  35  92 S5        30.28R WCI  33
$$

ORZ021-028-152200-
SOUTHWEST OREGON


CITY           SKY/WX    TMP DP  RH WIND       PRES   REMARKS
NORTH BEND     CLOUDY    47  43  86 CALM      30.31F
BROOKINGS      CLOUDY    51  44  77 CALM      30.21F
ROSEBURG       CLOUDY    39  36  89 CALM      30.29F
SEXTON SUMMIT  CLOUDY    41  34  76 VRB5      30.20F
GRANTS PASS    CLOUDY    34  34 100 CALM      30.31F
MEDFORD        CLOUDY    40  36  86 CALM      30.25S
$$

ORZ014>016-041-152200-
COLUMBIA GORGE


CITY           SKY/WX    TMP DP  RH WIND       PRES   REMARKS
TROUTDALE      CLOUDY    40  31  70 CALM      30.28S
HOOD RIVER     CLOUDY    36  30  80 SE8       30.19F WCI  29
THE DALLES     CLOUDY    37  27  67 E5        30.21F WCI  33
$$

ORZ029>031-041-044-049-050-061>064-502-503-505>511-152200-
EASTERN OREGON


CITY           SKY/WX    TMP DP  RH WIND       PRES   REMARKS
MADRAS         CLOUDY   N/A N/A N/A SE6       30.17F
REDMOND        CLOUDY    38  35  89 SE6       30.14F WCI  33
BEND           CLOUDY    43  28  56 CALM      30.16S
PRINEVILLE     CLOUDY    43  30  61 CALM      30.15F
KLAMATH FALLS  CLOUDY    38  27  64 CALM      30.16F
LAKEVIEW       CLOUDY    37  25  61 CALM      30.14F
HERMISTON      LGT SNOW  32  30  92 S5        30.19F FOG     WCI  27
PENDLETON      LGT SNOW  29  26  89 S10       30.16F FOG     WCI  20
JOHN DAY       CLOUDY    36  27  70 CALM      30.11F
MEACHAM        LGT SNOW  33  27  78 CALM      30.09S
LA GRANDE      CLOUDY    30  23  75 S20       30.14F WCI  17
BAKER CITY     CLOUDY    30  20  66 E8        30.17F WCI  22
BURNS          CLOUDY    24  22  91 CALM      30.14F
ROME             N/A     27  22  81 CALM      30.11F
ONTARIO        CLOUDY    29  27  92 CALM      30.27F
$$




USA.gov is the U.S. government's official web portal to all federal, state and local government web resources and services.